Zurück zum Katalog

FREGAT DEB

AktivUNKNOWN
NORAD 45620·DEBRIS·🇷🇺 Russia

Gestartet Jul 18, 2011 von Baikonur Cosmodrome

Loading…

Nächste Überflüge (nächste 24 Stunden)

TLE

AktuellSource: Space-Track

Epoche: Sep 14, 2026, 00:49 UTC

1 45620U 11037P   26257.03452801  .00020437  00000-0  29320-2 0  9998
2 45620  51.4128 128.4489 1257459 180.3586 179.6488 12.66676167272653

Verfolge FREGAT DEB in Echtzeit mit AllMySat

Download on the App Store